Location: *
(1.3500°S, 147.5000°W)
Time: 12:35:57
(UTC+00:00)

ISS - Visible Passes

Search period start: 18 June 2021 00:00
Search period end: 28 June 2021 00:00
Orbit: 417 x 422 km, 51.6° (Epoch: 18 June)

Date Brightness Start Highest point End Pass type
(mag) Time Alt. Az. Time Alt. Az. Time Alt. Az.
18 Jun -0.5 13:39:45 13° E 13:39:45 13° E 13:40:20 10° ENE visible
18 Jun -1.6 15:12:45 10° W 15:14:27 13° NW 15:16:10 10° NNW visible
19 Jun -2.3 14:27:46 26° NNW 14:27:46 26° NNW 14:30:01 10° N visible
20 Jun -0.5 13:42:44 12° NNE 13:42:44 12° NNE 13:43:00 10° NNE visible
